Regional Weather Roundup
Issued by NWS Green Bay, WI

Home | Current Version | Previous Version | Graphics & Text | Print | Product List | Glossary Off
Versions: 1 2 3 4 5 6 7 8 9 10 11 12 13 14 15 16 17 18 19 20 21 22 23 24 25 26 27 28 29 30 31 32 33 34 35 36 37 38 39 40 41 42 43 44 45 46 47 48 49 50

000
ASUS43 KGRB 230059
RWRGRB

NORTH-CENTRAL AND NORTHEAST WISCONSIN REGIONAL WEATHER ROUNDUP
NATIONAL WEATHER SERVICE GREEN BAY WI
800 PM CDT WED OCT 22 2014

WIZ005-009-010>012-018-019-230200-
NORTH CENTRAL WISCONSIN

CITY           SKY/WX    TMP DP  RH WIND       PRES   REMARKS
IRONWOOD       MOCLDY    52  28  40 SE8       30.08F
MANITOWISH WTR NOT AVBL
ARBOR VITAE    NOT AVBL
EAGLE RIVER    NOT AVBL
LAND O LAKES   NOT AVBL
RHINELANDER    CLEAR     42  31  64 SE7       30.19S
PHILLIPS       NOT AVBL
ANTIGO         NOT AVBL
TOMAHAWK       NOT AVBL
MERRILL        NOT AVBL
$$

WIZ013-073-230200-
NORTHEAST WISCONSIN

CITY           SKY/WX    TMP DP  RH WIND       PRES   REMARKS
IRON MOUNTAIN  CLEAR     39  33  79 SE6       30.22S
MARINETTE      CLEAR     41  34  75 S5        30.26S
$$

WIZ017-030-035>037-045-230200-
CENTRAL WISCONSIN

CITY           SKY/WX    TMP DP  RH WIND       PRES   REMARKS
MEDFORD        NOT AVBL
WAUSAU         CLEAR     46  34  62 SE10      30.19S
MOSINEE        CLEAR     45  36  70 SE7       30.21S
MARSHFIELD     CLEAR     45  35  68 SE6       30.18S
WISC RAPIDS    CLEAR     45  35  68 SE6       30.22R
STEVENS POINT  NOT AVBL
WAUPACA        NOT AVBL
SHAWANO        NOT AVBL
CLINTONVILLE   NOT AVBL
$$

WIZ038-039-048-051-230200-
FOX VALLEY

CITY           SKY/WX    TMP DP  RH WIND       PRES   REMARKS
NWS GREEN BAY  CLEAR     41  37  86 SE7       30.26F
APPLETON       PTCLDY    43  37  81 SE7       30.25S
OSHKOSH        CLEAR     45  39  79 SE8       30.24S
FOND DU LAC    CLEAR     43  38  82 SE9       30.25S
$$

WIZ022-050-052-230200-
EAST CENTRAL WISCONSIN

CITY           SKY/WX    TMP DP  RH WIND       PRES   REMARKS
STURGEON BAY   CLEAR     39  34  81 SE6       30.27F
MANITOWOC      NOT AVBL
SHEBOYGAN      CLEAR     39  35  86 CALM      30.27F
$$

LMZ563-521-522-541>543-230200-
LAKESHORE

STATION/POSITION TIME  TEMP    WIND        PRES    VSBY  WAVE
                       AIR SEA DIR/SP/G                  HT/PER
                 (UTC) (F)     (DEG/KT/KT) (MB)    (MI)  (FT/S)
SHEBOYGAN LKSHOR 0000   47 50  150/ 11/ 13 1025.9F
KEWAUNEE LKSHORE 0000   45     160/  8/ 10 1024.2F
TWO RIVERS CG    0000   46                 1024.9    3/8   1
NORTHPORT PIER   0000   40     170/  3/  5 1025.1F
N MID LAKE BUOY  0000   44 51  160/  6/  8 1026.2F         0
SISTER BAY LKSHO 0000          140/  5/  6   N/A
STURGEON BAY CG  0000   44 50  160/  9     1042.9    3/8   3
CHAMBERS ISLAND  0000   41     120/  6/  8 1025.1F
MENOMINEE LKSHOR 0000   45     150/ 12/ 14 1025.2F
$$



USA.gov is the U.S. government's official web portal to all federal, state and local government web resources and services.